[[{"header":{"parameterUnit":"m.s-1","parameterCategory":1,"la1":30.2991,"la2":30.254,"lo1":-89.0895,"lo2":-89.0444,"dy":0.0017,"dx":0.0017,"nx":28,"ny":28,"refTime":"2024-04-19T03:00:00:Z","depth":0,"parameterNumber":2,"parameterNumberName":"U-component_of_WINDS"},"data":[0,0,0,0,0,0,0,0,0,0,0,0,0,0,0,0,0,0,0,0,0,0,0,0,0,0,0,0,0,0,0,0,0,0,0,0,0,0,0,0,0,0,0,0,0,0,0,0,0,0,0,0,0,0,0,0,0,0,-0.0055,-0.0054,0,0.0024,0.0025,0.0026,0.0063,0.0063,0.0062,0.0062,0.0144,0.0147,0.0149,0,0,0,0,0,0,0,0,0,0,0,0,0,-0.0176,-0.0174,-0.0055,-0.0054,-0.0053,0.0024,0.0025,0.0026,0.0063,0.0063,0.0062,0.0062,0.0144,0.0146,0.0149,0,0,0,0,0,0,0,0,0,0,0,0,0,-0.0113,-0.0173,-0.0055,-0.0026,-0.0022,0.0024,0.0025,0.0027,0.0063,0.0063,0.0062,0.0062,0.0143,0.0146,0.0149,0.0173,0,0,0.016,0.0161,0,0,0,0,0,0,0,0,-0.0116,-0.0108,-0.0031,-0.0028,-0.0024,0.0033,0.0013,0.0076,0.0063,0.003,0.0062,0.0062,0.0108,0.0114,0.0129,0.0176,0.018,0.016,0.0162,0.0164,0.0164,0,0,0,0,0,0,0,-0.0121,-0.0111,-0.0024,-0.003,-0.0026,-0.0017,-0.0008,0.0025,0.0069,0.0033,0.0036,0.0045,0.011,0.0126,0.0131,0.0181,0.016,0.0163,0.0165,0.0166,0.0251,0.0252,0,0,0,0,0,0,-0.013,-0.0115,-0.0026,-0.0021,-0.0071,-0.0014,-0.0004,0.0015,0.0068,0.0076,0.0045,0.0046,0.012,0.0127,0.0134,0.0165,0.0164,0.0167,0.0169,0.0251,0.0251,0.0252,0,0,0,0,0,0,-0.0133,-0.0122,-0.0029,-0.0067,-0.0055,-0.0012,0.001,0.0017,0.0033,0.0077,0.0085,0.0053,0.012,0.013,0.0163,0.0168,0.0168,0.0171,0.0251,0.0251,0.0252,0.0226,0,0,0,0,0,0,-0.0136,-0.0124,-0.0114,-0.0068,-0.0053,-0.0002,0.001,0.0018,0.0039,0.0041,0.0087,0.0095,0.0121,0.0157,0.0166,0.0173,0.0174,0.0251,0.0251,0.0251,0.0227,0.0226,0.0225,0,0,0,0,0,-0.0141,-0.0124,-0.0114,-0.0103,-0.0041,-0.0002,0.0006,0.0036,0.0039,0.0049,0.0077,0.0093,0.0166,0.0161,0.0171,0.0179,0.025,0.0251,0.0251,0.0227,0.0226,0.0225,0,0,0,0,0,0,-0.0171,-0.0118,-0.0105,-0.0073,-0.0043,0.0004,0.0017,0.0033,0.0064,0.0065,0.01,0.011,0.014,0.0163,0.0156,0.0204,0.021,0.0212,0.0188,0.0187,0.0186,0.018,0.0177,0,0,0,0,0,-0.0174,-0.0147,-0.0102,-0.0078,-0.0063,-0.0026,-0.0008,0.0012,0.0045,0.0058,0.0089,0.0121,0.0151,0.017,0.0201,0.023,0.0241,0.024,0.0239,0.0238,0.024,0.0257,0.0258,0.0253,0.0253,0.0253,0,0,-0.018,-0.0147,-0.0133,-0.0083,-0.0057,-0.003,-0.0015,0.0013,0.0033,0.0063,0.0096,0.0119,0.0157,0.0189,0.0204,0.0208,0.0244,0.0239,0.0238,0.024,0.0258,0.0258,0.0259,0.0254,0.0254,0.0254,0,0,-0.0177,-0.015,-0.0127,-0.0101,-0.0061,-0.0037,-0.0032,0.0013,0.0029,0.0063,0.0086,0.011,0.0161,0.0188,0.0207,0.0219,0.0236,0.0228,0.0223,0.0239,0.024,0.024,0.0245,0.0246,0.023,0.023,0.023,0,-0.0189,-0.0147,-0.0117,-0.009,-0.007,-0.0042,-0.0019,0.0005,0.0052,0.0066,0.007,0.0134,0.0162,0.0199,0.0202,0.0217,0.0225,0.0223,0.0237,0.0238,0.0239,0.0244,0.0245,0.0229,0.0229,0.0229,0.0229,0,-0.0164,-0.0136,-0.0122,-0.0078,-0.0056,-0.0031,0.0003,0.0022,0.004,0.0064,0.0098,0.0131,0.0169,0.0179,0.0197,0.0219,0.0221,0.023,0.0237,0.0238,0.0243,0.0245,0.0227,0.0227,0.0228,0.0228,0,0,-0.0177,-0.0117,-0.0112,-0.0092,-0.0047,-0.0024,0.0001,0.0038,0.0053,0.0084,0.0107,0.0149,0.0158,0.0181,0.0201,0.0216,0.0223,0.0224,0.0225,0.0223,0.025,0.0242,0.0244,0.0234,0.0234,0.0235,0.0247,0,-0.0168,-0.012,-0.0092,-0.0056,-0.003,-0.0004,0.0019,0.0049,0.0072,0.0097,0.0123,0.0152,0.0162,0.0176,0.0191,0.0219,0.0229,0.0218,0.0255,0.0256,0.0245,0.0247,0.0239,0.0249,0.0249,0.0249,0.0249,0,-0.015,-0.012,-0.0081,-0.0039,-0.0027,-0.0008,0.0028,0.0052,0.0086,0.0102,0.0126,0.0147,0.0175,0.0179,0.0219,0.0211,0.0227,0.0243,0.0244,0.0249,0.0253,0.0252,0.0253,0.0254,0.0253,0.0252,0.0252,0,-0.0163,-0.0113,-0.0083,-0.0067,-0.0017,-0.0004,0.0017,0.0051,0.0071,0.0102,0.0115,0.0149,0.0167,0.0193,0.0222,0.0222,0.0258,0.0265,0.0272,0.0271,0.0279,0.0278,0.0283,0.0289,0.0289,0.0289,0.0289,0,-0.0155,-0.0133,-0.0088,-0.007,-0.0044,-0.0013,0.0012,0.0035,0.0065,0.0089,0.0113,0.0134,0.0171,0.0197,0.022,0.0249,0.0257,0.0271,0.0277,0.0269,0.0267,0.0281,0.0281,0.0289,0.0289,0.0289,0.0289,0,-0.0166,-0.0135,-0.0101,-0.0057,-0.0046,-0.0029,0.0009,0.0027,0.0051,0.008,0.0089,0.0127,0.0158,0.019,0.0232,0.0248,0.0276,0.0284,0.0265,0.0268,0.0274,0.0273,0.0288,0.0291,0.0294,0.0294,0.0294,0,-0.0162,-0.0144,-0.0099,-0.0082,-0.0061,-0.0034,-0.0014,0.0018,0.0038,0.0078,0.0092,0.0125,0.0153,0.0202,0.0234,0.0266,0.0275,0.0278,0.028,0.0272,0.0276,0.0274,0.0276,0.0277,0.0277,0.0277,0.0277,0,-0.016,-0.0146,-0.0118,-0.0084,-0.0061,-0.0033,-0.0005,0.0008,0.0045,0.0066,0.0099,0.012,0.0164,0.0196,0.0232,0.0254,0.0272,0.0276,0.0279,0.0272,0.026,0.0266,0.0262,0.0275,0.0276,0.0276,0.0276,0.0276,-0.0163,-0.0146,-0.0111,-0.0081,-0.0056,-0.003,-0.0011,0.0016,0.0043,0.008,0.0097,0.013,0.0163,0.0214,0.0235,0.0261,0.0266,0.0271,0.0272,0.0273,0.0271,0.0255,0.0268,0.0268,0.0268,0.0268,0.0268,0,-0.0159,-0.0136,-0.0108,-0.0069,-0.0045,-0.0031,0.0001,0.002,0.0048,0.0078,0.0105,0.0142,0.0174,0.0207,0.0241,0.0255,0.0264,0.0263,0.0263,0.0267,0.0265,0.0259,0.0255,0.0255,0.0255,0.0255,0.0255,0.0255,-0.0154,-0.0125,-0.0107,-0.0065,-0.0041,-0.001,0.0008,0.0032,0.0056,0.0096,0.0122,0.0144,0.0175,0.0211,0.0241,0.025,0.0261,0.0258,0.0269,0.0267,0.0267,0.0268,0.0263,0.026,0.026,0.0269,0.0269,0.0269]},{"header":{"parameterUnit":"m.s-1","parameterCategory":1,"la1":30.2991,"la2":30.254,"lo1":-89.0895,"lo2":-89.0444,"dy":0.0017,"dx":0.0017,"nx":28,"ny":28,"refTime":"2024-04-19T03:00:00:Z","depth":0,"parameterNumber":3,"parameterNumberName":"V-component_of_WINDS"},"data":[0,0,0,0,0,0,0,0,0,0,0,0,0,0,0,0,0,0,0,0,0,0,0,0,0,0,0,0,0,0,0,0,0,0,0,0,0,0,0,0,0,0,0,0,0,0,0,0,0,0,0,0,0,0,0,0,0,0,3.1803,3.1803,0,3.1819,3.1819,3.1819,3.1778,3.1777,3.1775,3.1774,3.1788,3.1789,3.1791,0,0,0,0,0,0,0,0,0,0,0,0,0,3.1734,3.1735,3.1803,3.1803,3.1803,3.1819,3.1819,3.1819,3.1778,3.1776,3.1775,3.1773,3.1787,3.1789,3.1791,0,0,0,0,0,0,0,0,0,0,0,0,0,3.1758,3.1736,3.1803,3.1785,3.1783,3.1819,3.1819,3.1819,3.1778,3.1776,3.1774,3.1773,3.1787,3.1789,3.1791,3.1844,0,0,3.1798,3.1799,0,0,0,0,0,0,0,0,3.1757,3.1761,3.1787,3.1786,3.1784,3.1794,3.18,3.1827,3.1779,3.178,3.1774,3.1772,3.1791,3.1793,3.18,3.1845,3.1845,3.1799,3.18,3.1801,3.1802,0,0,0,0,0,0,0,3.1755,3.176,3.1809,3.1787,3.1786,3.1775,3.1776,3.1805,3.1796,3.178,3.1777,3.1779,3.179,3.1798,3.18,3.1846,3.1798,3.1801,3.1802,3.1803,3.1935,3.1937,0,0,0,0,0,0,3.1756,3.1759,3.1808,3.1809,3.1766,3.1778,3.1779,3.1793,3.1796,3.1794,3.1781,3.1778,3.1795,3.1798,3.1801,3.1863,3.1801,3.1803,3.1804,3.1933,3.1935,3.1938,0,0,0,0,0,0,3.1755,3.1761,3.1808,3.1783,3.1788,3.1781,3.1797,3.1794,3.1802,3.1797,3.1795,3.1791,3.1794,3.1797,3.1834,3.1863,3.1804,3.1806,3.193,3.1934,3.1937,3.1989,0,0,0,0,0,0,3.1753,3.1761,3.1781,3.1784,3.179,3.1842,3.1799,3.1796,3.1807,3.1802,3.1806,3.1804,3.1792,3.1831,3.1836,3.1865,3.1808,3.1928,3.1932,3.1936,3.1985,3.1994,3.2001,0,0,0,0,0,3.1751,3.1795,3.1783,3.1789,3.1816,3.1843,3.1847,3.1833,3.1809,3.183,3.1826,3.1804,3.1859,3.1835,3.1841,3.1871,3.1926,3.1931,3.1935,3.1981,3.1992,3.2001,0,0,0,0,0,0,3.1794,3.1795,3.1781,3.1828,3.1836,3.1836,3.1862,3.1845,3.1859,3.1854,3.1836,3.1837,3.1877,3.1877,3.185,3.1923,3.1888,3.1894,3.1921,3.1931,3.194,3.1939,3.181,0,0,0,0,0,3.181,3.1833,3.1832,3.1873,3.1878,3.1869,3.1881,3.187,3.1877,3.188,3.1879,3.1887,3.1906,3.1918,3.1935,3.1985,3.1985,3.2008,3.2017,3.2023,3.2029,3.2056,3.2066,3.1953,3.1953,3.1953,0,0,3.1841,3.1844,3.186,3.1882,3.1887,3.1911,3.1872,3.1899,3.1917,3.1884,3.1919,3.1919,3.1926,3.1969,3.1988,3.1971,3.206,3.203,3.2035,3.2037,3.2062,3.2072,3.2082,3.1956,3.1956,3.1955,0,0,3.191,3.1915,3.195,3.1957,3.1966,3.196,3.1968,3.1972,3.197,3.2006,3.1982,3.2002,3.2035,3.2041,3.2048,3.2121,3.2102,3.2127,3.2171,3.2197,3.2206,3.2213,3.224,3.225,3.2133,3.2133,3.2133,0,3.1948,3.1984,3.197,3.2,3.201,3.1982,3.2017,3.2024,3.2037,3.2045,3.2025,3.2067,3.2069,3.2114,3.2132,3.2139,3.2148,3.2127,3.2206,3.2213,3.222,3.2246,3.2255,3.2136,3.2136,3.2135,3.2135,0,3.203,3.2056,3.2083,3.2099,3.2112,3.2144,3.2134,3.2149,3.2137,3.2133,3.2169,3.2171,3.2189,3.2199,3.2186,3.2242,3.2231,3.2209,3.2174,3.2235,3.2258,3.2267,3.214,3.2139,3.2138,3.2138,0,0,3.2127,3.2136,3.2146,3.2153,3.2161,3.218,3.2211,3.2229,3.2242,3.2253,3.2278,3.2307,3.2287,3.2295,3.2284,3.2307,3.2365,3.2282,3.2281,3.2297,3.2427,3.2444,3.2455,3.2352,3.2354,3.2355,3.2426,0,3.2197,3.2251,3.2239,3.2292,3.2316,3.229,3.2317,3.2324,3.2322,3.2341,3.2337,3.2358,3.233,3.2335,3.2357,3.2353,3.2391,3.2348,3.2375,3.2376,3.2374,3.2467,3.2485,3.2552,3.2435,3.2437,3.2438,0,3.2285,3.23,3.2356,3.2361,3.237,3.2395,3.2411,3.243,3.2437,3.2434,3.2444,3.2428,3.2458,3.2423,3.2464,3.2435,3.2445,3.2445,3.2448,3.245,3.2411,3.2472,3.2573,3.2583,3.2452,3.2451,3.245,0,3.2351,3.2385,3.2423,3.243,3.2437,3.2454,3.2458,3.2464,3.2476,3.249,3.2497,3.2514,3.2523,3.2536,3.2525,3.25,3.2568,3.2531,3.2565,3.2566,3.2581,3.258,3.2685,3.2587,3.2587,3.2587,3.2586,0,3.2429,3.2465,3.2453,3.2476,3.2515,3.2501,3.2539,3.254,3.2546,3.2568,3.2546,3.2568,3.2552,3.2571,3.2563,3.2598,3.2602,3.26,3.2597,3.2602,3.2603,3.2609,3.2604,3.2589,3.2589,3.2588,3.2588,0,3.251,3.2503,3.2543,3.2547,3.2549,3.2577,3.258,3.2601,3.2597,3.2626,3.2632,3.2625,3.2648,3.2638,3.2661,3.2655,3.2701,3.2692,3.2699,3.2697,3.2731,3.2728,3.2844,3.2859,3.2751,3.2752,3.2753,0,3.2561,3.2587,3.2595,3.2609,3.2614,3.2637,3.265,3.2637,3.2651,3.2662,3.2682,3.2703,3.2719,3.2756,3.2753,3.277,3.2762,3.2801,3.2764,3.2769,3.2763,3.2762,3.2764,3.2809,3.281,3.2811,3.2812,0,3.2652,3.2648,3.2667,3.2686,3.2702,3.2716,3.2728,3.2741,3.2728,3.2745,3.2768,3.2781,3.2805,3.2826,3.2842,3.2844,3.2826,3.2823,3.2832,3.2838,3.2841,3.284,3.272,3.2821,3.282,3.2819,3.2819,3.2818,3.2719,3.2742,3.2751,3.2774,3.2782,3.2794,3.2815,3.2814,3.2833,3.2853,3.2844,3.2871,3.2879,3.2898,3.2903,3.2924,3.2908,3.2921,3.2924,3.2928,3.2933,3.2838,3.2926,3.2926,3.2926,3.2926,3.2925,0,3.281,3.2815,3.2836,3.2854,3.2872,3.2855,3.2867,3.2883,3.2908,3.2916,3.2933,3.296,3.298,3.2979,3.2998,3.3015,3.3007,3.302,3.3019,3.302,3.2945,3.2936,3.3026,3.3026,3.3026,3.3026,3.3026,3.3026,3.2859,3.2898,3.2895,3.2936,3.2941,3.2968,3.2977,3.2988,3.2995,3.3027,3.3044,3.3043,3.3048,3.3067,3.3085,3.3084,3.3092,3.3108,3.3104,3.3035,3.3025,3.3015,3.3007,3.311,3.311,3.3177,3.3178,3.3178]}]]